Lid_Strength_Index
16 16 17 17 17 16 16 16 15 15 14 14 14 14 14 13 13 13 12 12 12 12 13 13 13 13 13 13 12 13 14 14 15 15 13 13 14 14 13 13 12 12 12
16 17 17 17 17 17 16 16 15 15 15 14 14 14 14 14 13 13 13 13 13 13 13 14 14 13 14 14 14 15 15 14 15 16 15 15 14 14 15 15 13 12 13
16 16 17 17 17 17 17 16 16 16 15 14 14 14 15 14 14 13 13 13 13 13 14 15 14 15 16 15 15 16 15 14 15 15 15 14 14 15 15 15 14 14 12
16 17 17 17 17 17 17 16 16 15 15 14 14 14 14 15 14 14 14 14 14 14 14 15 15 16 15 15 15 15 14 14 14 15 15 16 16 15 16 17 17 15 15
16 17 17 17 17 17 16 16 15 15 15 15 15 15 14 14 14 15 14 15 15 16 15 16 16 15 14 13 14 15 15 15 15 16 17 17 17 17 17 16 17 17 16
16 17 17 17 16 16 16 15 15 15 15 15 15 15 15 14 13 13 15 15 15 16 16 15 16 16 14 13 13 13 14 15 16 17 17 18 18 17 17 17 18 19 20
16 16 16 16 16 16 16 16 16 16 16 16 16 15 15 14 13 14 14 16 16 16 16 15 16 15 15 15 15 15 15 14 14 17 18 18 19 17 17 19 19 20 21
16 16 16 16 16 16 16 16 17 16 16 16 16 16 15 15 14 14 15 16 16 16 16 16 17 16 15 15 16 17 16 16 16 17 18 18 17 17 18 18 20 21 21
17 17 17 16 17 16 17 17 16 16 16 17 16 16 16 15 15 16 16 17 17 17 16 17 16 16 15 15 17 17 18 17 17 17 17 17 17 17 17 20 24 25 25
16 17 16 16 17 17 17 17 16 16 16 16 17 16 17 16 15 16 17 17 18 18 17 17 16 16 15 15 18 18 20 20 20 22 21 20 20 20 19 20 21 25 25
16 17 17 17 17 17 17 17 16 17 17 18 17 17 17 17 16 15 16 17 17 19 18 19 19 16 17 17 17 18 19 21 23 24 24 23 22 22 21 21 21 21 23
17 18 18 18 17 18 18 18 17 17 18 18 19 19 19 18 17 17 17 17 17 19 19 19 19 18 18 19 19 19 20 22 25 27 27 25 24 24 23 22 21 20 18
19 19 19 18 17 17 19 18 18 18 19 19 20 20 20 20 19 17 17 17 17 19 19 20 20 19 20 21 20 21 23 25 26 30 27 26 25 24 23 22 21 20 19
19 19 19 19 19 19 18 18 18 19 19 19 21 21 21 21 21 20 19 19 18 20 22 23 21 21 21 23 24 24 25 25 26 27 27 26 25 24 24 22 23 22 23
19 19 19 19 20 20 19 19 19 19 19 20 21 21 23 23 21 18 19 19 20 22 27 27 27 26 27 27 27 27 26 27 27 27 28 28 26 25 24 23 23 24 26
20 20 21 21 20 20 21 20 18 18 18 18 19 20 21 19 18 18 17 18 19 21 29 30 29 29 29 29 29 29 28 28 28 28 28 27 27 26 26 25 24 26 26
20 21 21 21 21 22 21 22 22 19 17 17 18 18 19 20 19 18 18 20 20 25 31 31 31 31 30 29 29 29 30 29 28 28 28 27 27 28 28 28 27 26 27
21 21 22 22 22 22 22 23 23 23 23 23 20 21 20 21 20 19 20 24 29 30 33 35 35 35 32 32 32 32 31 30 29 29 29 30 31 31 30 29 28 28 28
22 23 23 23 23 24 24 24 25 25 25 26 27 23 24 23 21 20 23 30 31 33 35 37 34 35 36 37 36 36 35 33 33 34 35 34 32 35 31 30 29 28 28
24 24 25 25 25 25 25 25 26 26 26 27 27 27 28 28 29 30 31 32 33 35 36 37 37 38 40 40 39 39 37 38 36 36 35 35 32 34 31 30 30 29 29
25 25 25 26 26 26 26 26 26 27 27 28 28 28 26 29 30 33 33 35 35 36 37 38 37 38 40 40 40 39 38 36 36 35 35 34 35 33 31 30 29 29 28
26 27 27 27 26 27 27 27 27 28 28 29 30 31 23 31 33 34 36 37 37 37 36 36 36 37 35 35 36 37 36 36 35 36 34 34 33 31 30 30 30 29 28
26 27 27 27 27 27 28 29 29 30 31 32 33 34 36 37 38 38 35 36 37 37 38 39 36 35 35 34 34 33 33 32 31 34 34 34 31 31 30 30 29 29 28
26 27 28 30 31 33 33 34 35 35 37 38 39 39 37 38 38 36 37 37 38 37 37 36 35 34 32 33 34 34 32 31 30 30 33 31 30 30 29 29 29 28 28
30 30 31 32 34 34 36 38 38 40 39 38 39 40 39 38 38 38 37 37 36 36 34 34 33 33 33 32 32 32 31 27 27 27 30 30 29 28 28 28 28 27 27
34 34 34 35 37 38 38 37 37 38 37 36 36 37 36 36 36 36 36 36 35 34 33 32 32 32 32 31 31 30 28 25 26 27 29 29 29 28 28 28 27 25 22